Regional Weather Roundup
Issued by NWS Jackson, KY

Home | Current Version | Previous Version | Graphics & Text | Print | Product List | Glossary On
Versions: 1 2 3 4 5 6 7 8 9 10 11 12 13 14 15 16 17 18 19 20 21 22 23 24 25 26 27 28 29 30 31 32 33 34 35 36 37 38 39 40 41 42 43 44 45 46 47 48 49 50
000
ASUS43 KJKL 240905
RWRJKL

EAST KENTUCKY HOURLY WEATHER ROUNDUP
NATIONAL WEATHER SERVICE JACKSON KY
500 AM EDT THU APR 24 2014

NOTE: "FAIR" INDICATES FEW OR NO CLOUDS BELOW 12,000 FEET WITH
NO SIGNIFICANT WEATHER AND/OR OBSTRUCTIONS TO VISIBILITY.

* THESE REPORTS ARE NOT UNDER NWS QUALITY CONTROL AND MAY NOT
  REPORT WEATHER SUCH AS PRECIPITATION AND FOG.

KYZ079-080-083-085-087-088-110-112-115-119-120-241000
...EASTERN KENTUCKY...

CITY           SKY/WX    TMP DP  RH WIND       PRES   REMARKS
JACKSON        PTCLDY    46  30  53 NE3       30.05F
LONDON         CLEAR     46  32  58 NE3       30.03F
SOMERSET*      MOCLDY    45  32  61 CALM      30.04F
WILLIAMSBURG*  CLEAR     41  36  81 CALM      30.03S
MIDDLESBORO*   CLEAR     37  35  92 CALM      30.05S
HARLAN APT*    SUNNY     37  34  87 CALM      30.05S
BLACK MTN*       N/A     46  23  39 SW1         N/A
PIKEVILLE APT* CLEAR     43  32  65 NE6       30.06S
BIG SANDY*     SUNNY     42  33  68 NE5       30.07S
$$

KYZ035-036-041-042-044-050-067-078-099-241000
...CENTRAL KENTUCKY...

CITY           SKY/WX    TMP DP  RH WIND       PRES   REMARKS
MT STERLING*   MOCLDY    46  34  61 SE8       30.06F
FLEMING/MASON* CLOUDY    44  34  68 E6        30.09R
RICHMOND*      PTCLDY    45  32  61 E8        30.03S
LEXINGTON      MOCLDY    50  33  52 E8        30.04S
FRANKFORT      MOCLDY    49  35  58 E8        30.04R
$$

KYZ091>093-OHZ055-061-077-WVZ005-015-034-035-042-241000
...SOUTHERN OHIO/WEST VIRGINIA...

CITY           SKY/WX    TMP DP  RH WIND       PRES   REMARKS
COVINGTON      CLOUDY    49  34  56 E9        30.06R
COLUMBUS       CLOUDY    45  28  51 E5        30.11R
DAYTON         CLOUDY    46  29  51 E10       30.08S
WILMINGTON     CLOUDY    44  30  57 E6        30.09R
HUNTINGTON     PTCLDY    44  32  62 E7        30.08F
CHARLESTON     PTCLDY    41  34  76 CALM      30.10R
PINEVILLE*     CLEAR     36  34  94 MISG      30.12R
BECKLEY        CLEAR     36  28  73 E3        30.06R
BLUEFIELD      CLEAR     43  27  53 CALM      30.07R
$$

VAZ002-007-008-TNZ017-027-036-066-071-241000
...SOUTHWEST VIRGINIA/EAST TENNESSEE...

CITY           SKY/WX    TMP DP  RH WIND       PRES   REMARKS
WISE*          CLEAR     45  27  49 NE3       30.07R
ABINGDON*      CLEAR     42  29  59 SE3       30.05S
BRISTOL        CLEAR     38  28  67 CALM      30.04R
KNOXVILLE      CLEAR     47  34  60 NE7       30.00R
OAK RIDGE      CLEAR     47  35  63 CALM      30.03R
CROSSVILLE     CLEAR     42  32  67 CALM      30.01S
NASHVILLE      CLEAR     47  37  68 CALM      29.98S
$$

...KEY TO REMARKS...
VSB - VISIBILITY IN MILES
WCI - WIND CHILL INDEX
HX  - HEAT INDEX

$$



USA.gov is the U.S. government's official web portal to all federal, state and local government web resources and services.